^^
B2 Weather Station Historical Data
Daily Summary for July 23, 2019 Units:  English    Metric   Both
Daily Weekly Monthly Yearly Custom
  High: Low: Average:
Temperature: 81.2 °F 53.4 °F 68.1 °F
Dew Point: 65.9 °F 51.1 °F 60 °F
Humidity: 94% 52% 77%
Wind Speed: 16.1mph 0mph 4.1mph
Wind Gust: 10.4mph - -
Wind- - West
Pressure: 30.11 in 30.03 in -
Precipitation: 0 in    
Historical Graphs
 
 
Tabular Data for July 23, 2019
Time Temperature Dew Point Pressure Wind Wind Speed Wind Gust Humidity Rainfall Rate (Hourly) solar
00:04 60.2 °F 54.7 °F 30.07 in NNW 3.5 mph 2.8 mph 82% 0 in 0.00 W/m2
00:09 60.2 °F 54.7 °F 30.07 in NNW 4.6 mph 1.9 mph 82% 0 in 0.00 W/m2
00:14 60.3 °F 54.4 °F 30.07 in NNW 3.5 mph 2.2 mph 81% 0 in 0.00 W/m2
00:19 60.4 °F 54.5 °F 30.08 in NNW 3.5 mph 2.7 mph 81% 0 in 0.00 W/m2
00:24 60.3 °F 54.4 °F 30.08 in NNW 3.5 mph 1.9 mph 81% 0 in 0.00 W/m2
00:29 60.3 °F 54.4 °F 30.08 in NNW 3.5 mph 2 mph 81% 0 in 0.00 W/m2
00:34 60 °F 54.5 °F 30.08 in NNW 2.3 mph 0.9 mph 82% 0 in 0.00 W/m2
00:39 59.5 °F 54.3 °F 30.08 in NNW 2.3 mph 1 mph 83% 0 in 0.00 W/m2
00:44 58.9 °F 54.1 °F 30.08 in Calm     84% 0 in 0.00 W/m2
00:49 58.2 °F 53.7 °F 30.08 in Calm     85% 0 in 0.00 W/m2
00:54 57.7 °F 53.5 °F 30.08 in Calm     86% 0 in 0.00 W/m2
00:59 57.2 °F 53.4 °F 30.08 in Calm     87% 0 in 0.00 W/m2
01:04 56.8 °F 53.3 °F 30.08 in Calm     88% 0 in 0.00 W/m2
01:09 56.5 °F 53.3 °F 30.08 in Calm     89% 0 in 0.00 W/m2
01:14 56.1 °F 52.9 °F 30.08 in Calm     89% 0 in 0.00 W/m2
01:19 55.5 °F 52.3 °F 30.08 in Calm     89% 0 in 0.00 W/m2
01:24 55 °F 52.1 °F 30.08 in Calm     90% 0 in 0.00 W/m2
01:29 55 °F 52.4 °F 30.08 in Calm     91% 0 in 0.00 W/m2
01:34 54.6 °F 52.3 °F 30.08 in Calm     92% 0 in 0.00 W/m2
01:39 54.5 °F 51.9 °F 30.08 in Calm     91% 0 in 0.00 W/m2
01:44 54.2 °F 51.9 °F 30.08 in Calm     92% 0 in 0.00 W/m2
01:49 54.4 °F 52.4 °F 30.08 in Calm     93% 0 in 0.00 W/m2
01:54 54.1 °F 51.8 °F 30.07 in Calm     92% 0 in 0.00 W/m2
01:59 53.7 °F 51.4 °F 30.07 in Calm     92% 0 in 0.00 W/m2
02:04 53.4 °F 51.1 °F 30.08 in Calm     92% 0 in 0.00 W/m2
02:09 53.7 °F 52 °F 30.08 in Calm     94% 0 in 0.00 W/m2
02:14 53.8 °F 51.8 °F 30.08 in Calm     93% 0 in 0.00 W/m2
02:19 53.8 °F 51.8 °F 30.08 in Calm     93% 0 in 0.00 W/m2
02:24 53.7 °F 51.7 °F 30.08 in Calm     93% 0 in 0.00 W/m2
02:29 53.6 °F 51.6 °F 30.08 in Calm     93% 0 in 0.00 W/m2
02:34 53.6 °F 51.9 °F 30.08 in Calm     94% 0 in 0.00 W/m2
02:39 53.7 °F 52 °F 30.08 in Calm     94% 0 in 0.00 W/m2
02:44 53.8 °F 52.1 °F 30.07 in Calm     94% 0 in 0.00 W/m2
02:49 53.9 °F 52.2 °F 30.07 in NNW 1.2 mph   94% 0 in 0.00 W/m2
02:54 54.3 °F 52.6 °F 30.07 in Calm     94% 0 in 0.00 W/m2
02:59 54.9 °F 53.2 °F 30.08 in Calm     94% 0 in 0.00 W/m2
03:04 55.5 °F 53.8 °F 30.07 in Calm     94% 0 in 0.00 W/m2
03:09 56.1 °F 54.1 °F 30.07 in Calm     93% 0 in 0.00 W/m2
03:14 56.5 °F 54.2 °F 30.07 in NNW 1.2 mph   92% 0 in 0.00 W/m2
03:19 57 °F 54.4 °F 30.07 in NNW 1.2 mph 0.1 mph 91% 0 in 0.00 W/m2
03:24 57.4 °F 54.5 °F 30.07 in Calm     90% 0 in 0.00 W/m2
03:29 57.7 °F 54.8 °F 30.07 in NNW 1.2 mph   90% 0 in 0.00 W/m2
03:34 57.8 °F 54.6 °F 30.07 in Calm     89% 0 in 0.00 W/m2
03:39 57.8 °F 54.6 °F 30.07 in Calm     89% 0 in 0.00 W/m2
03:44 57.8 °F 54.6 °F 30.07 in NNW 3.5 mph   89% 0 in 0.00 W/m2
03:49 58.1 °F 54.9 °F 30.07 in NNW 2.3 mph 0.4 mph 89% 0 in 0.00 W/m2
03:54 58.6 °F 55.4 °F 30.07 in NW 2.3 mph 0.7 mph 89% 0 in 0.00 W/m2
03:59 58.9 °F 55.7 °F 30.07 in NW 2.3 mph 0.4 mph 89% 0 in 0.00 W/m2
04:04 59.1 °F 55.9 °F 30.07 in NW 2.3 mph 1.4 mph 89% 0 in 0.00 W/m2
04:09 59.3 °F 55.7 °F 30.07 in NW 1.2 mph   88% 0 in 0.00 W/m2
04:14 59.4 °F 55.8 °F 30.07 in NW 2.3 mph 0.6 mph 88% 0 in 0.00 W/m2
04:19 59.5 °F 55.9 °F 30.07 in WNW 1.2 mph 0.3 mph 88% 0 in 0.00 W/m2
04:24 59.6 °F 56 °F 30.07 in Calm     88% 0 in 0.00 W/m2
04:29 59.5 °F 55.9 °F 30.07 in WNW 2 mph 0.1 mph 88% 0 in 0.00 W/m2
04:34 59.5 °F 55.9 °F 30.07 in WNW 2.3 mph 2.8 mph 88% 0 in 0.00 W/m2
04:39 59.5 °F 55.9 °F 30.08 in WNW 3.5 mph 1.5 mph 88% 0 in 0.00 W/m2
04:44 59.6 °F 56 °F 30.08 in West 3.5 mph 1 mph 88% 0 in 0.00 W/m2
04:49 59.6 °F 55.7 °F 30.08 in NW 3.5 mph 1.3 mph 87% 0 in 0.00 W/m2
04:54 59.8 °F 55.9 °F 30.08 in NW 3.5 mph 2 mph 87% 0 in 0.00 W/m2
04:59 59.9 °F 56 °F 30.08 in WNW 5 mph 2 mph 87% 0 in 0.00 W/m2
05:04 60 °F 55.8 °F 30.08 in WNW 4.6 mph 3.3 mph 86% 0 in 0.00 W/m2
05:09 60.1 °F 55.9 °F 30.08 in WNW 5.8 mph 0.6 mph 86% 0 in 0.00 W/m2
05:14 60.2 °F 56 °F 30.08 in WNW 4.6 mph 0.7 mph 86% 0 in 0.00 W/m2
05:19 60.2 °F 55.7 °F 30.08 in West 4.6 mph 0.1 mph 85% 0 in 0.00 W/m2
05:24 60.2 °F 55.7 °F 30.07 in WNW 3.5 mph 1.6 mph 85% 0 in 0.00 W/m2
05:29 60.1 °F 55.6 °F 30.08 in WNW 3.5 mph 1.5 mph 85% 0 in 0.00 W/m2
05:34 60.1 °F 55.6 °F 30.08 in WNW 4 mph 0.8 mph 85% 0 in 0.00 W/m2
05:39 60.2 °F 55.7 °F 30.08 in West 3.5 mph 0.9 mph 85% 0 in 0.00 W/m2
05:44 60.4 °F 55.9 °F 30.08 in West 4.6 mph 1.2 mph 85% 0 in 5.00 W/m2
05:49 60.6 °F 56.1 °F 30.08 in WNW 3.5 mph 2.3 mph 85% 0 in 9.00 W/m2
05:54 60.7 °F 56.2 °F 30.08 in West 3.5 mph 0.5 mph 85% 0 in 11.00 W/m2
05:59 60.8 °F 55.9 °F 30.08 in WNW 3.5 mph 0.7 mph 84% 0 in 16.00 W/m2
06:04 60.9 °F 56 °F 30.08 in WNW 2.3 mph 0.4 mph 84% 0 in 19.00 W/m2
06:09 61.1 °F 56.2 °F 30.08 in WNW 5.8 mph 1.5 mph 84% 0 in 25.00 W/m2
06:14 61.4 °F 56.5 °F 30.09 in WNW 6 mph 3.1 mph 84% 0 in 32.00 W/m2
06:19 61.6 °F 56.4 °F 30.09 in West 5.8 mph 1.8 mph 83% 0 in 35.00 W/m2
06:24 61.9 °F 56.7 °F 30.09 in WNW 5 mph 3.6 mph 83% 0 in 42.00 W/m2
06:29 62 °F 56.8 °F 30.09 in West 6.9 mph 3.9 mph 83% 0 in 49.00 W/m2
06:34 62 °F 57.1 °F 30.09 in WNW 6 mph 3.4 mph 84% 0 in 60.00 W/m2
06:39 62.1 °F 57.2 °F 30.09 in NW 4.6 mph 2.4 mph 84% 0 in 72.00 W/m2
06:44 62.2 °F 57.3 °F 30.09 in NW 3.5 mph 2.1 mph 84% 0 in 84.00 W/m2
06:49 62.2 °F 57.3 °F 30.10 in WNW 6.9 mph 4 mph 84% 0 in 98.00 W/m2
06:54 62.4 °F 57.5 °F 30.10 in NW 4 mph 3.1 mph 84% 0 in 116.00 W/m2
06:59 62.6 °F 57.7 °F 30.10 in NW 3 mph 2.1 mph 84% 0 in 134.00 W/m2
07:04 62.8 °F 57.9 °F 30.10 in NW 6.9 mph 3.7 mph 84% 0 in 149.00 W/m2
07:09 63 °F 57.8 °F 30.10 in NW 7 mph 1.8 mph 83% 0 in 169.00 W/m2
07:14 63.1 °F 57.9 °F 30.10 in West 5 mph 0.9 mph 83% 0 in 183.00 W/m2
07:19 63.4 °F 58.1 °F 30.10 in WNW 4.6 mph   83% 0 in 200.00 W/m2
07:24 63.6 °F 58.3 °F 30.10 in NW 6.9 mph   83% 0 in 216.00 W/m2
07:29 63.9 °F 58.6 °F 30.10 in Calm     83% 0 in 232.00 W/m2
07:34 64.1 °F 58.5 °F 30.10 in NW 6.9 mph 3.5 mph 82% 0 in 248.00 W/m2
07:39 64.3 °F 58.7 °F 30.10 in NW 5.8 mph 2.6 mph 82% 0 in 264.00 W/m2
07:44 64.6 °F 58.6 °F 30.10 in NNW 6.9 mph 3.9 mph 81% 0 in 279.00 W/m2
07:49 64.9 °F 59.3 °F 30.10 in NW 5.8 mph 1.6 mph 82% 0 in 290.00 W/m2
07:54 65.2 °F 59.2 °F 30.10 in NNW 5.8 mph 2 mph 81% 0 in 311.00 W/m2
07:59 65.4 °F 59.4 °F 30.10 in NW 5.8 mph 3.4 mph 81% 0 in 323.00 W/m2
08:04 65.7 °F 59.7 °F 30.10 in WNW 5.8 mph 4.4 mph 81% 0 in 339.00 W/m2
08:09 65.9 °F 59.6 °F 30.10 in NW 6.9 mph 4.3 mph 80% 0 in 355.00 W/m2
08:14 66.2 °F 59.8 °F 30.10 in NW 5.8 mph 5.5 mph 80% 0 in 369.00 W/m2
08:19 66.4 °F 60 °F 30.11 in NNW 6 mph 4.1 mph 80% 0 in 383.00 W/m2
08:24 66.7 °F 60.7 °F 30.10 in NNW 3.5 mph   81% 0 in 387.00 W/m2
08:29 67 °F 60.6 °F 30.10 in NW 6.9 mph 4 mph 80% 0 in 385.00 W/m2
08:34 67.3 °F 60.9 °F 30.10 in WNW 5.8 mph 1.3 mph 80% 0 in 381.00 W/m2
08:39 67.5 °F 60.8 °F 30.10 in NNW 6.9 mph 2.6 mph 79% 0 in 376.00 W/m2
08:44 67.8 °F 61.4 °F 30.10 in NNW 5.8 mph 2.9 mph 80% 0 in 376.00 W/m2
08:49 68 °F 61.2 °F 30.10 in NNW 7 mph 4.9 mph 79% 0 in 387.00 W/m2
08:54 68.4 °F 61.6 °F 30.10 in WNW 6.9 mph 4.7 mph 79% 0 in 408.00 W/m2
08:59 68.6 °F 61.8 °F 30.10 in NW 3.5 mph   79% 0 in 429.00 W/m2
09:04 69.2 °F 62 °F 30.10 in NNW 6.9 mph 4.7 mph 78% 0 in 459.00 W/m2
09:09 69.5 °F 62.3 °F 30.10 in NNW 1.2 mph   78% 0 in 487.00 W/m2
09:14 69.8 °F 62.3 °F 30.10 in North 3.5 mph 0.6 mph 77% 0 in 506.00 W/m2
09:19 70.1 °F 62.6 °F 30.10 in NW 4.6 mph   77% 0 in 510.00 W/m2
09:24 70.6 °F 63 °F 30.10 in WNW 1.2 mph   77% 0 in 506.00 W/m2
09:29 70.9 °F 63 °F 30.10 in NNW 3.5 mph 1.8 mph 76% 0 in 503.00 W/m2
09:34 71.3 °F 63 °F 30.10 in NW 3.5 mph 0.2 mph 75% 0 in 499.00 W/m2
09:39 71.6 °F 62.9 °F 30.09 in Calm     74% 0 in 499.00 W/m2
09:44 71.9 °F 63.2 °F 30.09 in NW 4.6 mph   74% 0 in 503.00 W/m2
09:49 72.2 °F 63.4 °F 30.09 in NW 6 mph 3.1 mph 74% 0 in 508.00 W/m2
09:54 72.6 °F 64.2 °F 30.09 in Calm   1.6 mph 75% 0 in 520.00 W/m2
09:59 73.2 °F 64 °F 30.09 in Calm     73% 0 in 536.00 W/m2
10:04 73.4 °F 62.6 °F 30.09 in NW 3.5 mph 0.3 mph 69% 0 in 559.00 W/m2
10:09 73.5 °F 63.1 °F 30.09 in NW 4.6 mph 3.2 mph 70% 0 in 584.00 W/m2
10:14 74.1 °F 64.1 °F 30.09 in Calm     71% 0 in 619.00 W/m2
10:19 74.9 °F 64.9 °F 30.09 in Calm     71% 0 in 650.00 W/m2
10:24 75.3 °F 63.2 °F 30.09 in North 3.5 mph 0.2 mph 66% 0 in 684.00 W/m2
10:29 75.3 °F 62.7 °F 30.09 in NNW 1.2 mph   65% 0 in 708.00 W/m2
10:34 75.7 °F 64.4 °F 30.09 in Calm     68% 0 in 722.00 W/m2
10:39 75.8 °F 62.8 °F 30.09 in NW 1.2 mph 0.6 mph 64% 0 in 726.00 W/m2
10:44 75.9 °F 63.7 °F 30.09 in North 1.2 mph   66% 0 in 735.00 W/m2
10:49 76.3 °F 65 °F 30.09 in NNW 3.5 mph 2.6 mph 68% 0 in 747.00 W/m2
10:54 76.3 °F 61.9 °F 30.09 in Calm   1.4 mph 61% 0 in 756.00 W/m2
10:59 76.6 °F 61.2 °F 30.09 in North 1 mph 0.3 mph 59% 0 in 766.00 W/m2
11:04 76.8 °F 61.9 °F 30.09 in WNW 3.5 mph 0.9 mph 60% 0 in 773.00 W/m2
11:09 77.2 °F 64.5 °F 30.09 in NW 4.6 mph 1.2 mph 65% 0 in 779.00 W/m2
11:14 77.4 °F 63.4 °F 30.09 in NNW 3.5 mph 1.1 mph 62% 0 in 786.00 W/m2
11:19 77.3 °F 63.7 °F 30.09 in WNW 1.2 mph 1.2 mph 63% 0 in 791.00 W/m2
11:24 77.5 °F 63.5 °F 30.09 in Calm     62% 0 in 798.00 W/m2
11:29 77.8 °F 62.8 °F 30.08 in NW 3.5 mph 1.9 mph 60% 0 in 805.00 W/m2
11:34 77.9 °F 62.9 °F 30.08 in NW 8.1 mph 0.6 mph 60% 0 in 807.00 W/m2
11:39 78.2 °F 64.6 °F 30.08 in WNW 3.5 mph   63% 0 in 814.00 W/m2
11:44 78.3 °F 65.1 °F 30.08 in Calm     64% 0 in 816.00 W/m2
11:49 78.4 °F 62.9 °F 30.08 in NNW 5.8 mph 2.4 mph 59% 0 in 824.00 W/m2
11:54 78.2 °F 62.7 °F 30.08 in NNW 9.2 mph 3.8 mph 59% 0 in 826.00 W/m2
11:59 78.4 °F 63.4 °F 30.08 in NNW 9.2 mph   60% 0 in 740.00 W/m2
12:04 78.5 °F 64.4 °F 30.08 in Calm   2.3 mph 62% 0 in 863.00 W/m2
12:09 78.6 °F 63.6 °F 30.08 in North 3.5 mph 0.7 mph 60% 0 in 904.00 W/m2
12:14 78.9 °F 65.2 °F 30.08 in NW 2.3 mph 0.8 mph 63% 0 in 909.00 W/m2
12:19 79.2 °F 64.1 °F 30.07 in NW 4.6 mph 1.9 mph 60% 0 in 949.00 W/m2
12:24 79.3 °F 65.1 °F 30.07 in NW 7 mph 3.5 mph 62% 0 in 225.00 W/m2
12:29 79 °F 64.4 °F 30.07 in NW 6.9 mph 6.4 mph 61% 0 in 949.00 W/m2
12:34 79.1 °F 63.1 °F 30.07 in NW 11 mph 8.4 mph 58% 0 in 923.00 W/m2
12:39 79.1 °F 64.5 °F 30.07 in NNW 8.1 mph 3.5 mph 61% 0 in 308.00 W/m2
12:44 79.1 °F 63.1 °F 30.06 in NNW 5.8 mph 3.9 mph 58% 0 in 325.00 W/m2
12:49 78.8 °F 63.3 °F 30.06 in WNW 9.2 mph 6.8 mph 59% 0 in 316.00 W/m2
12:54 78.5 °F 63 °F 30.06 in NNW 5.8 mph 3.9 mph 59% 0 in 207.00 W/m2
12:59 77.8 °F 62.8 °F 30.06 in NNW 6.9 mph 4.8 mph 60% 0 in 190.00 W/m2
13:04 77.3 °F 63.7 °F 30.06 in NNW 5.8 mph 3.5 mph 63% 0 in 171.00 W/m2
13:09 77.3 °F 65.1 °F 30.06 in North 3.5 mph 2.2 mph 66% 0 in 227.00 W/m2
13:14 77.8 °F 64.6 °F 30.06 in NNW 4.6 mph 1.7 mph 64% 0 in 1041.00 W/m2
13:19 78.2 °F 63.2 °F 30.06 in WNW 4.6 mph 3.2 mph 60% 0 in 362.00 W/m2
13:24 78.4 °F 62.4 °F 30.05 in NNW 10.4 mph 6.1 mph 58% 0 in 251.00 W/m2
13:29 78.2 °F 63.2 °F 30.05 in NNW 8.1 mph 4.9 mph 60% 0 in 313.00 W/m2
13:34 78.5 °F 63.5 °F 30.05 in NNW 9.2 mph 8 mph 60% 0 in 960.00 W/m2
13:39 79.1 °F 65 °F 30.05 in NNW 11.5 mph 8 mph 62% 0 in 1004.00 W/m2
13:44 79.6 °F 63.5 °F 30.05 in NNW 10.4 mph 5.7 mph 58% 0 in 339.00 W/m2
13:49 78.9 °F 62.9 °F 30.05 in NW 12 mph 9.3 mph 58% 0 in 988.00 W/m2
13:54 79.4 °F 64.8 °F 30.05 in NW 8 mph 6 mph 61% 0 in 981.00 W/m2
13:59 79.5 °F 63.9 °F 30.05 in NNW 11.5 mph 9.1 mph 59% 0 in 926.00 W/m2
14:04 79.6 °F 63.5 °F 30.05 in NW 10.4 mph 6.9 mph 58% 0 in 925.00 W/m2
14:09 80.1 °F 65.9 °F 30.05 in WNW 11.5 mph 4.9 mph 62% 0 in 932.00 W/m2
14:14 80.2 °F 64.1 °F 30.05 in NNW 10.4 mph 6.8 mph 58% 0 in 916.00 W/m2
14:19 80.2 °F 65.5 °F 30.04 in West 9.2 mph 6.5 mph 61% 0 in 863.00 W/m2
14:24 80.2 °F 63.6 °F 30.04 in NW 11.5 mph 9.1 mph 57% 0 in 909.00 W/m2
14:29 80.3 °F 63.2 °F 30.05 in NNW 12.7 mph 9.4 mph 56% 0 in 904.00 W/m2
14:34 79.8 °F 63.7 °F 30.04 in NNW 12.7 mph 6.8 mph 58% 0 in 907.00 W/m2
14:39 80 °F 62.9 °F 30.04 in NW 15 mph 6.3 mph 56% 0 in 241.00 W/m2
14:44 80 °F 63.9 °F 30.04 in NNW 11.5 mph 8.3 mph 58% 0 in 907.00 W/m2
14:49 79.7 °F 63.6 °F 30.04 in NW 11.5 mph 7.6 mph 58% 0 in 854.00 W/m2
14:54 80.3 °F 63.7 °F 30.04 in North 11.5 mph 7.2 mph 57% 0 in 835.00 W/m2
14:59 80.7 °F 63.5 °F 30.04 in WNW 11.5 mph 7.1 mph 56% 0 in 891.00 W/m2
15:04 80.1 °F 62.5 °F 30.04 in North 16.1 mph 10.4 mph 55% 0 in 846.00 W/m2
15:09 80.4 °F 64.3 °F 30.04 in NNW 12.7 mph 6.8 mph 58% 0 in 833.00 W/m2
15:14 81 °F 63.8 °F 30.04 in NNW 8.1 mph 6.6 mph 56% 0 in 828.00 W/m2
15:19 81.1 °F 61.8 °F 30.04 in NNW 11.5 mph 5.6 mph 52% 0 in 780.00 W/m2
15:24 81.2 °F 64.5 °F 30.04 in North 10 mph 7.7 mph 57% 0 in 758.00 W/m2
15:29 80.6 °F 64.5 °F 30.03 in NNE 9.2 mph 7.1 mph 58% 0 in 779.00 W/m2
15:34 80.3 °F 63.2 °F 30.04 in North 9.2 mph 8.5 mph 56% 0 in 220.00 W/m2
15:39 80 °F 62.9 °F 30.03 in NNE 11.5 mph 6.2 mph 56% 0 in 705.00 W/m2
15:44 79.6 °F 62 °F 30.03 in North 12.7 mph 7.2 mph 55% 0 in 225.00 W/m2
15:49 78.7 °F 64.1 °F 30.03 in NNW 9.2 mph 5.9 mph 61% 0 in 770.00 W/m2
15:54 78.8 °F 61.8 °F 30.04 in North 11.5 mph 8.6 mph 56% 0 in 209.00 W/m2
15:59 78.5 °F 63.5 °F 30.03 in North 8.1 mph 8.9 mph 60% 0 in 281.00 W/m2
16:04 79.2 °F 62.7 °F 30.03 in NNW 12.7 mph 8.3 mph 57% 0 in 708.00 W/m2
16:09 80 °F 62.9 °F 30.03 in NW 7 mph 6.6 mph 56% 0 in 721.00 W/m2
16:14 80.6 °F 63.5 °F 30.03 in North 11.5 mph 7.3 mph 56% 0 in 729.00 W/m2
16:19 80.3 °F 62.7 °F 30.03 in North 11.5 mph 8.1 mph 55% 0 in 211.00 W/m2
16:24 79.1 °F 64 °F 30.04 in NNE 12.7 mph 8.6 mph 60% 0 in 223.00 W/m2
16:29 77.5 °F 63.9 °F 30.04 in NNE 11.5 mph 6.1 mph 63% 0 in 200.00 W/m2
16:34 76.6 °F 64.8 °F 30.04 in ENE 11 mph 6.5 mph 67% 0 in 575.00 W/m2
16:39 76.9 °F 65.5 °F 30.04 in NNE 10.4 mph 6.3 mph 68% 0 in 591.00 W/m2
16:44 77.5 °F 65.7 °F 30.04 in ENE 11.5 mph 4.2 mph 67% 0 in 464.00 W/m2
16:49 77.7 °F 65 °F 30.04 in North 11.5 mph 6.8 mph 65% 0 in 244.00 W/m2
16:54 77.6 °F 65.8 °F 30.04 in NNE 13 mph 6.1 mph 67% 0 in 554.00 W/m2
16:59 77.7 °F 65.9 °F 30.05 in NNE 11.5 mph 7.7 mph 67% 0 in 499.00 W/m2
17:04 77.6 °F 65.8 °F 30.05 in NE 11 mph 6 mph 67% 0 in 483.00 W/m2
17:09 77.6 °F 64.9 °F 30.05 in ENE 13.8 mph 5.4 mph 65% 0 in 450.00 W/m2
17:14 77.6 °F 65.3 °F 30.05 in NE 9.2 mph 1.7 mph 66% 0 in 459.00 W/m2
17:19 77.5 °F 63.5 °F 30.05 in NNE 9.2 mph 7.4 mph 62% 0 in 450.00 W/m2
17:24 77.4 °F 64.3 °F 30.05 in NNE 12 mph 7.9 mph 64% 0 in 443.00 W/m2
17:29 77.1 °F 63.5 °F 30.05 in NNE 11.5 mph 6.4 mph 63% 0 in 436.00 W/m2
17:34 77 °F 63.4 °F 30.05 in NE 11.5 mph 4.6 mph 63% 0 in 415.00 W/m2
17:39 77.1 °F 64 °F 30.05 in NE 6 mph 6.4 mph 64% 0 in 383.00 W/m2
17:44 76.9 °F 63.8 °F 30.05 in NNE 13.8 mph 7.8 mph 64% 0 in 360.00 W/m2
17:49 76.5 °F 63.9 °F 30.05 in NE 8.1 mph 5.1 mph 65% 0 in 341.00 W/m2
17:54 76.2 °F 64 °F 30.05 in NNE 11.5 mph 1.7 mph 66% 0 in 320.00 W/m2
17:59 75.9 °F 63.3 °F 30.05 in NE 10.4 mph 6.2 mph 65% 0 in 306.00 W/m2
18:04 75.7 °F 63.5 °F 30.05 in NNE 6.9 mph 3.7 mph 66% 0 in 295.00 W/m2
18:09 75.7 °F 64.4 °F 30.05 in NNE 6.9 mph 1.2 mph 68% 0 in 283.00 W/m2
18:14 76 °F 64.2 °F 30.05 in NNE 8.1 mph 2.9 mph 67% 0 in 272.00 W/m2
18:19 75.9 °F 63.3 °F 30.05 in NNE 8.1 mph 4.1 mph 65% 0 in 255.00 W/m2
18:24 75.8 °F 62.3 °F 30.05 in NE 8.1 mph 4 mph 63% 0 in 239.00 W/m2
18:29 75.5 °F 62.5 °F 30.05 in ENE 6.9 mph 1.7 mph 64% 0 in 223.00 W/m2
18:34 75.5 °F 63.3 °F 30.05 in ENE 2.3 mph 3.2 mph 66% 0 in 211.00 W/m2
18:39 75.4 °F 62.8 °F 30.05 in NE 5 mph 2.2 mph 65% 0 in 197.00 W/m2
18:44 75.2 °F 63.1 °F 30.05 in NE 1.2 mph 1.9 mph 66% 0 in 179.00 W/m2
18:49 75.1 °F 63.4 °F 30.05 in Calm     67% 0 in 162.00 W/m2
18:54 75 °F 63.3 °F 30.05 in Calm     67% 0 in 134.00 W/m2
18:59 74.7 °F 63 °F 30.05 in East 1.2 mph 0.2 mph 67% 0 in 128.00 W/m2
19:04 74.4 °F 63.1 °F 30.05 in Calm     68% 0 in 111.00 W/m2
19:09 74.2 °F 63.8 °F 30.05 in Calm     70% 0 in 97.00 W/m2
19:14 74 °F 63.6 °F 30.05 in Calm     70% 0 in 79.00 W/m2
19:19 73.7 °F 63.7 °F 30.05 in Calm     71% 0 in 47.00 W/m2
19:24 73 °F 63 °F 30.05 in Calm     71% 0 in 46.00 W/m2
19:29 72.4 °F 62.9 °F 30.05 in Calm     72% 0 in 46.00 W/m2
19:34 71.9 °F 62.8 °F 30.06 in Calm     73% 0 in 39.00 W/m2
19:39 71.3 °F 63 °F 30.06 in Calm     75% 0 in 33.00 W/m2
19:44 70.7 °F 62.8 °F 30.06 in Calm     76% 0 in 28.00 W/m2
19:49 70.2 °F 62.6 °F 30.06 in Calm     77% 0 in 23.00 W/m2
19:54 69.6 °F 62.4 °F 30.06 in Calm     78% 0 in 18.00 W/m2
19:59 69 °F 62.6 °F 30.06 in Calm     80% 0 in 14.00 W/m2
20:04 68.5 °F 62.4 °F 30.06 in Calm     81% 0 in 11.00 W/m2
20:09 67.9 °F 62.2 °F 30.06 in Calm     82% 0 in 5.00 W/m2
20:14 67.5 °F 62.2 °F 30.07 in Calm     83% 0 in 0.00 W/m2
20:19 67.1 °F 62.1 °F 30.06 in Calm     84% 0 in 0.00 W/m2
20:24 66.7 °F 61.7 °F 30.06 in Calm     84% 0 in 0.00 W/m2
20:29 66.3 °F 61.7 °F 30.06 in Calm     85% 0 in 0.00 W/m2
20:34 66.1 °F 61.5 °F 30.06 in Calm     85% 0 in 0.00 W/m2
20:39 65.8 °F 61.5 °F 30.07 in Calm     86% 0 in 0.00 W/m2
20:44 65.7 °F 61.4 °F 30.07 in Calm     86% 0 in 0.00 W/m2
20:49 65.5 °F 61.2 °F 30.07 in Calm     86% 0 in 0.00 W/m2
20:54 65.4 °F 61.1 °F 30.07 in Calm     86% 0 in 0.00 W/m2
20:59 65.1 °F 61.1 °F 30.07 in Calm     87% 0 in 0.00 W/m2
21:04 64.9 °F 60.9 °F 30.07 in Calm     87% 0 in 0.00 W/m2
21:09 64.7 °F 60.7 °F 30.08 in Calm     87% 0 in 0.00 W/m2
21:14 64.7 °F 60.7 °F 30.08 in Calm     87% 0 in 0.00 W/m2
21:19 64.7 °F 60.7 °F 30.08 in Calm     87% 0 in 0.00 W/m2
21:24 64.7 °F 60.7 °F 30.08 in Calm     87% 0 in 0.00 W/m2
21:29 64.5 °F 60.5 °F 30.09 in Calm     87% 0 in 0.00 W/m2
21:34 64.1 °F 60.2 °F 30.09 in Calm     87% 0 in 0.00 W/m2
21:39 63.7 °F 60.1 °F 30.09 in Calm     88% 0 in 0.00 W/m2
21:44 63.3 °F 60 °F 30.09 in Calm     89% 0 in 0.00 W/m2
21:49 63.1 °F 59.8 °F 30.09 in Calm     89% 0 in 0.00 W/m2
21:54 62.9 °F 59.9 °F 30.09 in Calm     90% 0 in 0.00 W/m2
21:59 62.8 °F 59.8 °F 30.09 in Calm     90% 0 in 0.00 W/m2
22:04 62.7 °F 59.7 °F 30.09 in Calm     90% 0 in 0.00 W/m2
22:09 62.7 °F 59.7 °F 30.09 in Calm     90% 0 in 0.00 W/m2
22:14 62.4 °F 59.4 °F 30.09 in Calm     90% 0 in 0.00 W/m2
22:19 62.2 °F 59.5 °F 30.10 in Calm     91% 0 in 0.00 W/m2
22:24 62 °F 59.3 °F 30.09 in Calm     91% 0 in 0.00 W/m2
22:29 61.8 °F 59.1 °F 30.09 in Calm     91% 0 in 0.00 W/m2
22:34 61.7 °F 59.4 °F 30.10 in Calm     92% 0 in 0.00 W/m2
22:39 61.5 °F 59.2 °F 30.10 in Calm     92% 0 in 0.00 W/m2
22:44 61.4 °F 59.1 °F 30.10 in Calm     92% 0 in 0.00 W/m2
22:49 61.3 °F 59 °F 30.10 in Calm     92% 0 in 0.00 W/m2
22:54 61.3 °F 59 °F 30.10 in Calm     92% 0 in 0.00 W/m2
22:59 61.1 °F 58.8 °F 30.10 in Calm     92% 0 in 0.00 W/m2
23:04 60.8 °F 58.5 °F 30.10 in Calm     92% 0 in 0.00 W/m2
23:09 60.4 °F 57.8 °F 30.10 in Calm     91% 0 in 0.00 W/m2
23:14 59.9 °F 57.3 °F 30.10 in Calm     91% 0 in 0.00 W/m2
23:19 59.7 °F 57.4 °F 30.10 in Calm     92% 0 in 0.00 W/m2
23:24 59.6 °F 57.3 °F 30.10 in Calm     92% 0 in 0.00 W/m2
23:29 59.3 °F 57 °F 30.10 in Calm     92% 0 in 0.00 W/m2
23:34 59.4 °F 57.4 °F 30.10 in Calm     93% 0 in 0.00 W/m2
23:39 59.3 °F 57.3 °F 30.10 in Calm     93% 0 in 0.00 W/m2
23:44 59.3 °F 57.3 °F 30.10 in Calm     93% 0 in 0.00 W/m2
23:49 59.2 °F 57.5 °F 30.10 in Calm     94% 0 in 0.00 W/m2
23:54 59.1 °F 57.1 °F 30.10 in Calm     93% 0 in 0.00 W/m2
23:59 59 °F 57.3 °F 30.10 in Calm     94% 0 in 0.00 W/m2
Bourbonnais, Illinois, USA
Compliments of Weather Underground - 4 mb